Regional Weather Roundup
Issued by NWS

Home | Current Version | Previous Version | Graphics & Text | Print | Product List | Glossary On
Versions: 1 2 3 4 5 6 7 8 9 10 11 12 13 14 15 16 17 18 19 20 21 22 23 24 25 26 27 28 29 30 31 32 33 34 35 36 37 38 39 40 41 42 43 44 45 46 47 48 49 50
000
ASUS45 KPSR 040110
RWRAZ

ARIZONA REGIONAL HOURLY WEATHER ROUNDUP
NATIONAL WEATHER SERVICE PHOENIX AZ
600 PM MST SUN MAY 03 2015

NOTE: FAIR INDICATES FEW OR NO CLOUDS BELOW 12,000 FEET WITH NO
SIGNIFICANT WEATHER AND/OR OBSTRUCTIONS TO VISIBILITY.

AZZ001>003-036-040200-
NORTHWEST ARIZONA

CITY           SKY/WX    TMP DP  RH WIND       PRES   REMARKS
BULLHEAD CITY  SUNNY     91  37  15 S12       29.67F
KINGMAN        SUNNY     79  33  19 SW18G25   29.84S
$$

AZZ004>008-015-016-018-040200-
NORTH CENTRAL ARIZONA

CITY           SKY/WX    TMP DP  RH WIND       PRES   REMARKS
GRAND CANYON   PTSUNNY   53  41  63 VRB5      30.07S
WILLIAMS       CLOUDY    55  39  54 N6G16     30.15R
PRESCOTT       MOSUNNY   72  32  23 SW12      29.94F
FLAGSTAFF      MOSUNNY   63  29  27 SW16      30.05F
PAYSON         MOSUNNY   73  36  25 W13       29.96F
PAGE           CLOUDY    73  38  27 S10G20    29.91S
$$

AZZ009>014-017-040200-
NORTHEAST ARIZONA

CITY           SKY/WX    TMP DP  RH WIND       PRES   REMARKS
WINSLOW        PTSUNNY   73  35  25 NW10      29.94F
SAINT JOHNS    PTSUNNY   66  33  29 S18G37    29.97S
WINDOW ROCK    CLOUDY    59  39  47 W3        30.06S
SHOW LOW       LGT RAIN  61  30  31 S14G41    30.04R
$$

AZZ023-040200-
GREATER PHOENIX AREA

CITY           SKY/WX    TMP DP  RH WIND       PRES   REMARKS
PHOENIX        PTSUNNY   91  38  15 W7        29.68F
GLENDALE       MOSUNNY   93  41  16 CALM      29.70F
LUKE AFB       MOSUNNY   91  42  18 W5        29.68F
DEER VALLEY    SUNNY     89  37  16 CALM      29.71F
SCOTTSDALE     SUNNY     90  35  14 SW7       29.72F
MESA-GATEWAY   MOSUNNY   90  39  17 W5        29.72F
CHANDLER       PTSUNNY   91  37  15 SW13      29.69F
$$

AZZ027-028-040200-
SOUTHWEST MARICOPA COUNTY AND PINAL COUNTY

CITY           SKY/WX    TMP DP  RH WIND       PRES   REMARKS
CASA GRANDE    MOSUNNY   91  37  15 CALM      29.70F
GILA BEND      FAIR      91  45  20 SW16G25   29.68S
$$

AZZ503-504-507>509-040200-
SOUTHEAST ARIZONA

CITY           SKY/WX    TMP DP  RH WIND       PRES   REMARKS
TUCSON         PTSUNNY   88  34  14 S10       29.80S
DAVIS-MONTHAN  PTSUNNY   82  37  20 SW22G38   29.79S
RYAN FIELD       N/A     86  37  17 SW18G41   29.80S
NOGALES        MOSUNNY   79  39  23 SW15      29.88F
SIERRA VISTA   CLOUDY    74  33  22 SW15      29.94S
DOUGLAS        MOSUNNY   77  33  20 S7        29.89F
SAFFORD        MOSUNNY   85  34  16 W10       29.79S
$$

AZZ020-021-025-026-031-040200-
SOUTHWEST ARIZONA

CITY           SKY/WX    TMP DP  RH WIND       PRES   REMARKS
YUMA           SUNNY     90  48  23 S14       29.70S
$$

CAZ031-033-041-043-047-048-061-040200-
SOUTHERN CALIFORNIA

CITY           SKY/WX    TMP DP  RH WIND       PRES   REMARKS
DOWNTOWN L.A.  SUNNY     64  50  60 VRB5      29.86F
L.A. AIRPORT   MOSUNNY   61  51  70 W21       29.87F
SAN DIEGO      PTSUNNY   65  52  62 W10       29.89S
BURBANK        SUNNY     70  51  51 S6        29.84F
ONTARIO        SUNNY     71  51  49 W15G23    29.82S
RIVERSIDE      SUNNY     72  51  47 W9        29.83S
PALM SPRINGS   SUNNY     91  40  16 NW16G25   29.69F
EL CENTRO NAS  LGT RAIN  90  44  20 SE18      29.67F
IMPERIAL       SUNNY     91  45  20 SE18      29.66S
BLYTHE         SUNNY     90  50  25 S10       29.67F
NEEDLES        SUNNY     92  37  14 SW9       29.68F
$$

NVZ020-UTZ003-040200-
SOUTHERN NEVADA-UTAH

CITY           SKY/WX    TMP DP  RH WIND       PRES   REMARKS
LAS VEGAS      MOSUNNY   88  28  11 SW9       29.67F
SALT LAKE CITY MOSUNNY   77  31  18 NW9       29.81F
$$

NMZ009-TXZ055-040200-
NEW MEXICO-WEST TEXAS

CITY           SKY/WX    TMP DP  RH WIND       PRES   REMARKS
ALBUQUERQUE    MOCLDY    72  34  24 N8        29.96F
EL PASO        MOCLDY    84  32  15 W13       29.83S
$$


........................KEY........................
SKY/WX - SKY CONDITION/WEATHER
TMP    - TEMPERATURE IN FAHRENHEIT
DP     - DEW POINT IN FAHRENHEIT
RH     - RELATIVE HUMIDITY IN PERCENT
WIND   - DIRECTION AND SPEED IN MILES PER HOUR (MPH)
VRB    - VARIABLE WIND DIRECTION
PRES   - MEAN SEA LEVEL PRESSURE IN INCHES OF MERCURY
         F - FALLING PRESSURE   R - RISING PRESSURE
         S - STEADY PRESSURE
VSB    - VISIBILITY IN MILES
HX     - HEAT INDEX IN FAHRENHEIT
WCI    - WIND CHILL INDEX IN FAHRENHEIT
TC     - TEMPERATURE IN CELSIUS WHICH IS ALSO KNOWN AS
         TEMPERATURE IN CENTIGRADE
AFB    - AIR FORCE BASE
         LUKE AFB IS LUKE AIR FORCE BASE
         DAVIS-MONTHAN IS DAVIS-MONTHAN AIR FORCE BASE
NAS    - NAVAL AIR STATION
         EL CENTRO NAS IS EL CENTRO NAVAL AIR STATION
N/A    - NOT AVAILABLE




USA.gov is the U.S. government's official web portal to all federal, state and local government web resources and services.